When you browse on this site, cookies collect data to enhance your experience and personalize the content and advertising you see.
Visit our Privacy Policy to learn more. By continuing to use the site, you agree to this use of cookies and data.
  • In France
  • List of Countries
  • For 7 days
  • Water Temperature
  • Weather Map
  • Weather Widgets
  • user-avatar
    Login

    Hourly Weather Korçe

    Today, 27 February, Thursday

    Time Temperature Precipitation Wind Pressure Humidity
    00:00 +3°C° 0.1 mm 3 mps 658 mmHg 94%
    01:00 +2°C° 0 mm 3 mps 657 mmHg 94%
    02:00 +2°C° 0.5 mm 3 mps 657 mmHg 94%
    03:00 +2°C° 0.5 mm 3 mps 657 mmHg 94%
    04:00 0°C° 0.5 mm 4 mps 656 mmHg 94%
    05:00 0°C° 1.5 mm 4 mps 656 mmHg 92%
    06:00 0°C° 1.5 mm 4 mps 657 mmHg 90%
    07:00 -1°C° 1.5 mm 4 mps 657 mmHg 87%
    08:00 0°C° 0.3 mm 5 mps 657 mmHg 79%
    09:00 -1°C° 0.3 mm 6 mps 658 mmHg 71%
    10:00 0°C° 0.3 mm 7 mps 658 mmHg 62%
    11:00 +1°C° 0.2 mm 6 mps 658 mmHg 63%
    12:00 +1°C° 0.2 mm 6 mps 659 mmHg 63%
    13:00 +1°C° 0.2 mm 6 mps 659 mmHg 63%
    14:00 0°C° 1.1 mm 5 mps 659 mmHg 72%
    15:00 -1°C° 1.1 mm 5 mps 659 mmHg 81%
    16:00 -2°C° 1.1 mm 4 mps 660 mmHg 91%
    17:00 -1°C° 0.3 mm 3 mps 660 mmHg 91%
    18:00 -2°C° 0.3 mm 3 mps 661 mmHg 91%
    19:00 -2°C° 0.3 mm 2 mps 661 mmHg 92%
    20:00 -2°C° 0.1 mm 2 mps 662 mmHg 91%
    21:00 0°C° 0.1 mm 1 mps 662 mmHg 90%
    22:00 0°C° 0.1 mm 1 mps 662 mmHg 89%
    23:00 -1°C° 0 mm 1 mps 662 mmHg 89%

    Tomorrow, 28 February, Friday

    Time Temperature Precipitation Wind Pressure Humidity
    00:00 -1°C° 0 mm 1 mps 662 mmHg 88%
    01:00 -1°C° 0 mm 1 mps 662 mmHg 88%
    02:00 -1°C° 0 mm 1 mps 662 mmHg 88%
    03:00 -1°C° 0 mm 1 mps 662 mmHg 88%
    04:00 -3°C° 0 mm 2 mps 662 mmHg 88%
    05:00 -3°C° 0 mm 2 mps 662 mmHg 88%
    06:00 -3°C° 0 mm 2 mps 662 mmHg 87%
    07:00 -2°C° 0 mm 2 mps 662 mmHg 87%
    08:00 -2°C° 0.4 mm 2 mps 661 mmHg 89%
    09:00 -1°C° 0.4 mm 3 mps 661 mmHg 91%
    10:00 -1°C° 0.4 mm 3 mps 661 mmHg 93%
    11:00 0°C° 1.4 mm 3 mps 661 mmHg 95%
    12:00 0°C° 1.4 mm 3 mps 660 mmHg 96%
    13:00 +1°C° 1.4 mm 2 mps 660 mmHg 97%
    14:00 +1°C° 1.3 mm 2 mps 660 mmHg 97%
    15:00 +1°C° 1.3 mm 2 mps 661 mmHg 98%
    16:00 +1°C° 1.3 mm 2 mps 661 mmHg 98%
    17:00 +1°C° 0.1 mm 2 mps 661 mmHg 97%
    18:00 +1°C° 0.1 mm 2 mps 662 mmHg 96%
    19:00 +1°C° 0.1 mm 2 mps 662 mmHg 95%
    20:00 -1°C° 0 mm 2 mps 663 mmHg 94%
    21:00 +1°C° 0 mm 1 mps 663 mmHg 93%
    22:00 0°C° 0 mm 1 mps 664 mmHg 92%
    23:00 0°C° 0 mm 1 mps 664 mmHg 92%

    Day after tomorrow, 29 February, Saturday

    Time Temperature Precipitation Wind Pressure Humidity
    00:00 -1°C° 0 mm 1 mps 664 mmHg 92%
    01:00 -1°C° 0 mm 1 mps 664 mmHg 92%
    02:00 -1°C° 0 mm 1 mps 664 mmHg 91%
    03:00 -2°C° 0 mm 1 mps 664 mmHg 90%
    04:00 -2°C° 0 mm 1 mps 664 mmHg 89%
    05:00 -2°C° 0 mm 1 mps 664 mmHg 88%
    06:00 -2°C° 0 mm 1 mps 665 mmHg 86%
    07:00 -1°C° 0 mm 1 mps 665 mmHg 85%
    08:00 0°C° 0 mm 1 mps 666 mmHg 79%
    09:00 +2°C° 0 mm 1 mps 666 mmHg 73%
    10:00 +4°C° 0 mm 1 mps 667 mmHg 67%
    11:00 +5°C° 0 mm 1 mps 667 mmHg 64%
    12:00 +6°C° 0 mm 1 mps 667 mmHg 61%
    13:00 +7°C° 0 mm 1 mps 667 mmHg 58%
    14:00 +7°C° 0 mm 1 mps 667 mmHg 60%
    15:00 +6°C° 0 mm 1 mps 667 mmHg 63%
    16:00 +6°C° 0 mm 1 mps 666 mmHg 65%
    17:00 +5°C° 0 mm 1 mps 666 mmHg 67%
    18:00 +4°C° 0 mm 1 mps 666 mmHg 68%
    19:00 +2°C° 0 mm 1 mps 666 mmHg 70%
    20:00 +2°C° 0 mm 1 mps 666 mmHg 72%
    21:00 +2°C° 0 mm 1 mps 666 mmHg 74%
    22:00 +1°C° 0 mm 2 mps 666 mmHg 76%
    23:00 -1°C° 0 mm 2 mps 666 mmHg 79%

    1 March, Sunday

    Time Temperature Precipitation Wind Pressure Humidity
    00:00 -1°C° 0 mm 2 mps 666 mmHg 81%
    01:00 -1°C° 0 mm 2 mps 666 mmHg 84%
    02:00 -1°C° 0 mm 2 mps 665 mmHg 83%
    03:00 -2°C° 0 mm 2 mps 665 mmHg 82%
    04:00 -2°C° 0 mm 2 mps 665 mmHg 81%
    05:00 -2°C° 0 mm 2 mps 665 mmHg 79%
    06:00 -2°C° 0 mm 2 mps 665 mmHg 78%
    07:00 -1°C° 0 mm 2 mps 665 mmHg 77%
    08:00 +1°C° 0 mm 2 mps 665 mmHg 76%
    09:00 +2°C° 0 mm 3 mps 666 mmHg 76%
    10:00 +4°C° 0 mm 3 mps 666 mmHg 75%
    11:00 +5°C° 0 mm 3 mps 666 mmHg 76%
    12:00 +7°C° 0 mm 3 mps 666 mmHg 76%
    13:00 +7°C° 0 mm 3 mps 666 mmHg 77%
    14:00 +7°C° 0 mm 3 mps 665 mmHg 78%
    15:00 +7°C° 0 mm 3 mps 665 mmHg 80%
    16:00 +7°C° 0 mm 3 mps 664 mmHg 82%
    17:00 +5°C° 0 mm 3 mps 664 mmHg 85%
    18:00 +4°C° 0 mm 3 mps 664 mmHg 89%
    19:00 +3°C° 0 mm 3 mps 664 mmHg 92%
    20:00 +3°C° 0 mm 3 mps 664 mmHg 92%
    21:00 +3°C° 0 mm 3 mps 664 mmHg 93%
    22:00 +3°C° 0 mm 3 mps 664 mmHg 93%
    23:00 +3°C° 0 mm 3 mps 664 mmHg 93%

    2 March, Monday

    Time Temperature Precipitation Wind Pressure Humidity
    00:00 +3°C° 0 mm 3 mps 664 mmHg 94%
    01:00 +3°C° 0 mm 3 mps 664 mmHg 94%
    02:00 +3°C° 0 mm 3 mps 663 mmHg 95%
    03:00 +3°C° 0 mm 3 mps 663 mmHg 95%
    04:00 +4°C° 0 mm 3 mps 663 mmHg 96%
    05:00 +4°C° 1.1 mm 3 mps 662 mmHg 97%
    06:00 +4°C° 1.1 mm 3 mps 662 mmHg 97%
    07:00 +4°C° 1.1 mm 3 mps 662 mmHg 98%
    08:00 +4°C° 0.9 mm 3 mps 662 mmHg 97%
    09:00 +5°C° 0.9 mm 3 mps 663 mmHg 95%
    10:00 +7°C° 0.9 mm 3 mps 663 mmHg 94%
    11:00 +7°C° 0.2 mm 3 mps 663 mmHg 93%
    12:00 +8°C° 0.2 mm 3 mps 663 mmHg 91%
    13:00 +8°C° 0.2 mm 3 mps 663 mmHg 89%
    14:00 +8°C° 0.1 mm 3 mps 662 mmHg 88%
    15:00 +9°C° 0.1 mm 3 mps 662 mmHg 86%
    16:00 +9°C° 0.1 mm 3 mps 662 mmHg 85%
    17:00 +8°C° 0 mm 3 mps 661 mmHg 88%
    18:00 +7°C° 0 mm 3 mps 661 mmHg 92%
    19:00 +5°C° 0 mm 3 mps 661 mmHg 95%
    20:00 +5°C° 0 mm 3 mps 661 mmHg 95%
    21:00 +5°C° 0 mm 2 mps 661 mmHg 95%
    22:00 +5°C° 0 mm 2 mps 661 mmHg 95%
    23:00 +4°C° 0 mm 3 mps 661 mmHg 95%

    3 March, Tuesday

    Time Temperature Precipitation Wind Pressure Humidity
    00:00 +4°C° 0 mm 3 mps 660 mmHg 95%
    01:00 +4°C° 0 mm 3 mps 660 mmHg 96%
    02:00 +4°C° 0.4 mm 3 mps 660 mmHg 96%
    03:00 +4°C° 0.4 mm 3 mps 660 mmHg 96%
    04:00 +5°C° 0.4 mm 3 mps 659 mmHg 96%
    05:00 +5°C° 1.7 mm 3 mps 659 mmHg 96%
    06:00 +5°C° 1.7 mm 3 mps 659 mmHg 96%
    07:00 +5°C° 1.7 mm 3 mps 659 mmHg 96%
    08:00 +5°C° 1.6 mm 4 mps 658 mmHg 95%
    09:00 +6°C° 1.6 mm 4 mps 658 mmHg 93%
    10:00 +6°C° 1.6 mm 5 mps 658 mmHg 92%
    11:00 +6°C° 2.3 mm 4 mps 658 mmHg 92%
    12:00 +6°C° 2.3 mm 4 mps 657 mmHg 93%
    13:00 +5°C° 2.3 mm 3 mps 657 mmHg 93%
    14:00 +5°C° 3.3 mm 3 mps 656 mmHg 94%
    15:00 +5°C° 3.3 mm 3 mps 656 mmHg 95%
    16:00 +5°C° 3.3 mm 3 mps 656 mmHg 96%
    17:00 +5°C° 1.6 mm 3 mps 656 mmHg 96%
    18:00 +5°C° 1.6 mm 3 mps 656 mmHg 96%
    19:00 +6°C° 1.6 mm 2 mps 655 mmHg 96%
    20:00 +6°C° 1.1 mm 2 mps 655 mmHg 95%
    21:00 +5°C° 1.1 mm 3 mps 655 mmHg 94%
    22:00 +5°C° 1.1 mm 3 mps 654 mmHg 92%
    23:00 +5°C° 2 mm 3 mps 653 mmHg 93%
    Show more